Location: Schommer Observatory
(40.5200°N, 74.4500°W)
Time: 18:03:10
(UTC-04:00)

OTV 5 (USA 277) - Visible Passes

Search period start: 23 August 2019 00:00
Search period end: 02 September 2019 00:00
Orbit: 305 x 329 km, 54.5° (Epoch: 20 August)

Date Brightness Start Highest point End Pass type
(mag) Time Alt. Az. Time Alt. Az. Time Alt. Az.
23 Aug ? 05:01:43 37° SW 05:01:43 37° SW 05:04:10 10° SSE visible
23 Aug ? 21:18:33 10° SW 21:21:14 80° NW 21:21:24 74° NNE visible
24 Aug ? 21:33:27 10° W 21:35:51 28° NW 21:37:02 20° N visible
25 Aug ? 20:13:26 10° SW 20:16:05 54° SE 20:18:44 10° ENE visible
25 Aug ? 21:49:04 10° WNW 21:50:37 14° NNW 21:52:02 11° N visible
26 Aug ? 20:28:01 10° WSW 20:30:38 45° NW 20:33:15 10° NE visible
27 Aug ? 20:43:14 10° W 20:45:20 19° NNW 20:47:23 10° NNE visible
28 Aug ? 20:59:26 10° NW 21:00:10 11° NNW 21:00:54 10° N visible
